WA5GP Weather Reports


time (UTC)temp
C
wind
direction
speed
KPH
gust
KPH
rain 1hr
cm
rain 24hr
cm
rain mn
cm
humidity
%
barometer
mb
20260510060023 23 65 6.4 16.1 0.00 0.00 0.00 66 1001.6
20260510054518 23 130 4.8 11.3 0.00 0.00 0.00 66 1001.2
20260510053015 23 116 6.4 16.1 0.00 0.00 0.00 64 1001.1
20260510051511 23 113 3.2 12.9 0.00 0.00 0.00 64 1000.8
20260510050049 24 157 3.2 12.9 0.00 0.00 0.00 64 1000.6
20260510044553 24 129 6.4 14.5 0.00 0.00 0.00 64 1000.6
20260510043108 24 166 6.4 16.1 0.00 0.00 0.00 64 1000.4
20260510041559 24 133 9.7 20.9 0.00 0.00 0.00 64 1000.5
20260510040057 24 136 8.0 17.7 0.00 0.00 0.00 64 1000.5
20260510034555 25 115 9.7 14.5 0.00 0.00 0.00 64 1000.5
20260510033058 25 124 8.0 17.7 0.00 0.00 0.00 63 1000.5
20260510031600 25 133 9.7 17.7 0.00 0.00 0.00 63 1000.5
20260510024601 25 127 6.4 16.1 0.00 0.00 0.00 62 1000.4
20260510023104 25 158 8.0 14.5 0.00 0.00 0.00 61 1000.4
20260510021502 26 139 9.7 16.1 0.00 0.00 0.00 59 1000.2
20260510020051 26 151 9.7 16.1 0.00 0.00 0.00 59 1000.0
20260510014549 26 155 8.0 16.1 0.00 0.00 0.00 59 999.9
20260510013052 26 135 6.4 16.1 0.00 0.00 0.00 58 999.7
20260510011555 27 139 8.0 16.1 0.00 0.00 0.00 57 999.6
20260510010036 28 138 8.0 14.5 0.00 0.00 0.00 55 999.4
20260510004537 29 116 8.0 19.3 0.00 0.00 0.00 53 999.4
20260510003046 29 146 9.7 16.1 0.00 0.00 0.00 53 999.4
20260510001545 30 129 9.7 25.7 0.00 0.00 0.00 52 999.3
20260510000020 30 103 9.7 20.9 0.00 0.00 0.00 51 999.6
20260509234533 30 125 11.3 24.1 0.00 0.00 0.00 50 999.6
20260509233030 31 136 9.7 20.9 0.00 0.00 0.00 49 999.6
20260509231528 31 145 8.0 19.3 0.00 0.00 0.00 48 999.7
20260509230006 31 117 14.5 22.5 0.00 0.00 0.00 47 999.9
20260509224507 31 131 6.4 16.1 0.00 0.00 0.00 46 1000.0
20260509223005 31 174 8.0 17.7 0.00 0.00 0.00 45 1000.1
20260509221608 31 180 8.0 16.1 0.00 0.00 0.00 46 1000.3
20260509220045 31 103 3.2 8.0 0.00 0.00 0.00 46 1000.4
20260509214545 31 162 6.4 16.1 0.00 0.00 0.00 45 1000.6
20260509213047 31 248 1.6 11.3 0.00 0.00 0.00 44 1000.7
20260509211553 31 212 4.8 16.1 0.00 0.00 0.00 47 1000.9
20260509210036 31 216 4.8 9.7 0.00 0.00 0.00 45 1001.1
20260509204537 31 143 6.4 14.5 0.00 0.00 0.00 47 1001.4
20260509203041 31 237 3.2 12.9 0.00 0.00 0.00 47 1001.6
20260509201550 31 143 8.0 14.5 0.00 0.00 0.00 46 1001.7
20260509200030 31 235 1.6 9.7 0.00 0.00 0.00 44 1001.9
20260509194534 31 229 3.2 12.9 0.00 0.00 0.00 44 1002.2
20260509193034 31 78 3.2 8.0 0.00 0.00 0.00 47 1002.3
20260509191533 30 336 3.2 9.7 0.00 0.00 0.00 47 1002.4
20260509190015 30 309 0.0 6.4 0.00 0.00 0.00 50 1002.6
20260509184523 30 148 4.8 11.3 0.00 0.00 0.00 52 1002.8
20260509183025 30 73 1.6 6.4 0.00 0.00 0.00 55 1003.0
20260509181522 28 94 3.2 9.7 0.00 0.00 0.00 53 1003.3
20260509180103 28 90 1.6 9.7 0.00 0.00 0.00 53 1003.6
20260509174603 28 248 3.2 8.0 0.00 0.00 0.00 55 1003.8
20260509173103 27 300 4.8 8.0 0.00 0.00 0.00 56 1003.9
20260509171502 27 271 3.2 6.4 0.00 0.00 0.00 57 1004.2
20260509170044 27 58 0.0 8.0 0.00 0.00 0.00 60 1004.2
20260509164547 26 25 0.0 8.0 0.00 0.00 0.00 62 1004.4
20260509163040 25 227 4.8 11.3 0.00 0.00 0.00 65 1004.5
20260509161536 25 15 1.6 6.4 0.00 0.00 0.00 67 1004.8
20260509160010 24 266 1.6 8.0 0.00 0.00 0.00 69 1004.7
20260509154510 23 307 4.8 9.7 0.00 0.00 0.00 67 1004.8
20260509153015 23 20 0.0 6.4 0.00 0.00 0.00 69 1004.9
20260509151518 22 321 1.6 8.0 0.00 0.00 0.00 70 1004.9
20260509150057 22 347 0.0 6.4 0.00 0.00 0.00 71 1005.0
20260509144554 21 4 1.6 6.4 0.00 0.00 0.00 73 1005.0
20260509143046 20 96 0.0 3.2 0.00 0.00 0.00 77 1005.1
20260509141548 20 105 0.0 1.6 0.00 0.00 0.00 79 1005.1
20260509140035 19 123 0.0 1.6 0.00 0.00 0.00 79 1005.5
20260509134548 18 136 0.0 4.8 0.00 0.00 0.00 81 1005.6
20260509133038 17 120 0.0 1.6 0.00 0.00 0.00 86 1005.5
20260509131549 17 67 0.0 4.8 0.00 0.00 0.00 88 1005.5
20260509130035 16 71 0.0 1.6 0.00 0.00 0.00 89 1005.2
20260509124538 15 28 0.0 1.6 0.00 0.00 0.00 92 1004.9
20260509123044 15 13 0.0 1.6 0.00 0.00 0.00 92 1004.8
20260509121550 15 13 0.0 3.2 0.00 0.00 0.00 92 1004.6
20260509120032 15 13 0.0 1.6 0.00 0.00 0.00 92 1004.2
20260509114542 15 23 0.0 4.8 0.00 0.00 0.00 92 1003.9
20260509113034 15 50 0.0 3.2 0.00 0.00 0.00 91 1003.8
20260509111530 15 356 0.0 3.2 0.00 0.00 0.00 90 1003.4
20260509110019 15 89 0.0 4.8 0.00 0.00 0.00 90 1003.4
20260509104521 15 231 1.6 6.4 0.00 0.00 0.00 90 1003.2
20260509103017 16 152 0.0 1.6 0.00 0.00 0.00 89 1003.5
20260509101531 16 139 0.0 1.6 0.00 0.00 0.00 88 1003.7
20260509100101 16 183 0.0 1.6 0.00 0.00 0.00 87 1003.6
20260509094512 16 235 1.6 11.3 0.00 0.00 0.00 86 1003.4
20260509093010 16 179 3.2 14.5 0.00 0.00 0.00 85 1002.7
20260509091517 17 354 0.0 3.2 0.00 0.00 0.00 82 1001.9
20260509090002 17 307 0.0 0.0 0.00 0.00 0.00 79 1001.4
20260509084511 18 304 0.0 8.0 0.00 0.00 0.00 77 1000.9
20260509083010 19 327 3.2 9.7 0.00 0.00 0.00 72 1000.5
20260509081510 20 257 1.6 8.0 0.00 0.00 0.00 70 1000.8
20260509080059 20 250 3.2 22.5 0.00 0.00 0.00 68 1001.0
20260509074606 19 244 6.4 17.7 0.00 0.00 0.00 68 1000.6
20260509073055 18 147 9.7 17.7 0.00 0.00 0.00 76 1001.9
20260509071547 17 191 12.9 22.5 0.00 0.00 0.00 81 1002.7
20260509070032 16 223 6.4 14.5 0.00 0.00 0.00 86 1004.0
20260509064548 16 240 6.4 16.1 0.00 0.00 0.00 87 1004.6
20260509063041 16 155 3.2 11.3 0.00 0.00 0.00 86 1004.4
20260509061528 17 228 1.6 11.3 0.00 0.00 0.00 83 1005.4